Powrót do katalogu

STARLINK-1579

AktywnyŁącznośćVLEO
NORAD 46083·PAYLOAD·🇺🇸 United States

Wystrzelony Aug 7, 2020 z Cape Canaveral Space Force Station

Loading…

Następne Przeloty (najbliższe 24 godziny)

TLE

ŚwieżeSource: CelesTrak SupGP

Epoka: Sep 15, 2026, 02:49 UTC

1 46083C 20055BJ  26258.11784722  .00020770  00000+0  66766-3 0  2585
2 46083  53.1585 299.6346 0001400  87.6505 352.7593 15.31703019    10

Śledź STARLINK-1579 w czasie rzeczywistym z AllMySat

Download on the App Store